Overview Statistics Trail Chart Weather Telemetry Raw packets
 

This is the latest recevied weather packets stored in our database for station/object WX6HNX-14. If no packets are shown the sender has not sent any weather packets the latest 10 day(s).

<< 12 13 14 15 16 17 18 >>
Time Temp. Humidity Pressure Rain* Wind** Luminosity Snow
1777707228 18.33° C 60% 1012 hPa 0 mm - - -
1777706926 18.33° C 59% 1011.9 hPa 0 mm - - -
1777706627 18.33° C 59% 1011.9 hPa 0 mm - - -
1777706327 18.33° C 58% 1011.9 hPa 0 mm - - -
1777706026 18.89° C 57% 1011.9 hPa 0 mm - - -
1777705726 18.89° C 57% 1011.9 hPa 0 mm - - -
1777705430 18.89° C 56% 1011.9 hPa 0 mm - - -
1777705126 19.44° C 57% 1011.8 hPa 0 mm - - -
1777704826 19.44° C 55% 1011.8 hPa 0 mm - - -
1777704526 20° C 54% 1011.9 hPa 0 mm - - -
1777704143 19.44° C 55% 1011.8 hPa 0 mm - - -
1777703843 20° C 53% 1011.8 hPa 0 mm - - -
1777703543 20° C 53% 1011.7 hPa 0 mm - - -
1777703244 20.56° C 52% 1011.7 hPa 0 mm - - -
1777702943 20° C 51% 1011.7 hPa 0 mm - - -
1777702344 20.56° C 50% 1011.6 hPa 0 mm - - -
1777702043 20.56° C 50% 1011.6 hPa 0 mm - - -
1777701743 21.11° C 47% 1011.6 hPa 0 mm - - -
1777701456 21.67° C 49% 1011.6 hPa 0 mm - - -
1777700845 21.67° C 46% 1011.6 hPa 0 mm - - -
1777700544 21.67° C 47% 1011.6 hPa 0 mm - - -
1777700244 22.22° C 46% 1011.5 hPa 0 mm - - -
1777699946 21.67° C 46% 1011.5 hPa 0 mm - - -
1777699645 21.67° C 46% 1011.5 hPa 0 mm - - -
1777699343 21.67° C 46% 1011.5 hPa 0 mm - - -

* Rain latest hour (hover to see other rain measurements)
** Current wind speed in m/s (hover to see current wind gust speed)